{"data":{"norad_id":64368,"intl_designator":"2025-126AA","name":"STARLINK-34457","alt_names":[],"object_type":"PAYLOAD","status":"ACTIVE","operator":null,"country":"US","launch_date":"2025-06-13","launch_site_code":"AFWTR","launch_vehicle":null,"mission":null,"orbit_class":"UNKNOWN","rcs_meters":null,"size_class":null,"mass_kg":null,"dimensions":null,"purposes":["comms"],"wikipedia_slug":null,"has_3d_model":false,"image_url":null,"decayed_at":null,"tle_current":{"epoch":"2026-05-25T03:49:37.648128Z","epoch_age_seconds":51455,"freshness":"FRESH","line1":"1 64368U 25126AA  26145.15946352  .00004028  00000+0  34508-3 0  9992","line2":"2 64368  70.0004 201.7505 0003884 267.1506  92.9208 14.98336920 52136","mean_motion":14.9833692,"eccentricity":0.0003884,"inclination_deg":70.0004,"raan_deg":201.7505,"arg_perigee_deg":267.1506,"mean_anomaly_deg":92.9208,"bstar":0.00034508,"rev_number":5213,"period_min":96.106555259948,"perigee_km":569.33504489031,"apogee_km":574.73393810491,"semimajor_km":6950.1714914976,"source":"CELESTRAK","updated_at":"2026-05-25T13:38:20.407699Z"}}}